Theta_e
345 347 348 348 349 350 351 352 352 353 354 354 353 353 354 355 356 355 357 359 357 355 355 354 353 353 355 353 352 354 356 357 358 360 360 360 363 364 366 365 366 367 368 369 368 368 367 367 367 366 366 365 364 362 363 362 364 362 359 361 358 355 353 353 350 347 344 341 347 344 347 351 349 350 347 345 347 350 352 353 355 354 355 356 359
345 346 347 348 348 350 350 351 352 350 352 353 352 352 354 354 355 356 358 359 358 357 357 356 357 354 353 353 353 355 356 355 357 360 361 362 365 365 366 365 367 367 368 369 369 368 368 367 367 366 366 365 365 366 365 364 364 361 360 358 358 352 349 348 348 344 339 338 337 339 340 345 348 345 342 342 345 348 350 352 353 348 348 353 356
343 344 346 347 348 349 349 350 351 352 352 352 353 353 354 354 356 358 358 358 358 359 358 357 358 359 357 357 356 356 359 360 359 361 363 362 363 365 366 366 367 367 368 368 368 368 368 367 366 366 367 366 365 364 364 363 363 361 359 355 351 353 350 349 349 346 338 340 344 336 332 332 340 341 342 342 342 346 348 347 349 347 351 355 357
341 343 344 345 347 348 349 349 351 351 352 353 353 353 353 354 356 358 359 359 359 359 359 360 360 362 362 362 361 360 359 361 363 363 363 362 360 363 366 366 367 366 367 367 368 368 368 367 367 366 367 367 365 363 363 362 363 360 359 356 353 347 346 347 349 348 343 339 331 330 334 330 328 334 338 341 341 343 345 346 350 349 350 354 351
341 342 344 345 346 347 348 350 351 350 351 352 353 353 353 354 356 358 359 359 360 360 360 361 361 360 359 361 361 360 360 359 358 357 360 361 360 362 363 366 366 366 367 367 367 368 369 368 367 367 367 367 366 364 363 361 362 361 360 357 353 348 344 345 349 347 346 346 338 333 329 328 329 333 333 339 340 339 343 344 349 349 348 352 351
343 342 343 344 346 347 349 350 349 350 351 353 354 354 355 356 357 358 359 360 360 361 361 360 358 357 355 352 349 350 351 352 352 354 355 357 356 359 364 364 364 365 366 367 367 367 369 369 369 368 367 367 366 364 364 363 363 360 359 357 354 352 349 344 341 350 348 349 347 345 344 332 332 336 334 329 342 340 343 345 349 347 350 351 353
343 344 344 344 345 346 347 349 349 350 351 354 355 355 357 357 358 359 359 360 361 361 360 360 358 358 356 353 353 352 351 354 358 359 358 359 361 361 363 364 365 364 365 367 367 369 369 370 369 368 368 367 367 365 363 361 359 360 360 357 355 353 349 343 341 343 348 350 348 344 345 344 341 337 331 334 331 338 339 340 341 345 347 348 347
341 342 343 344 346 346 346 348 349 349 352 353 354 355 357 358 359 359 359 360 360 360 360 360 358 357 357 356 355 355 353 356 359 359 361 362 360 361 362 363 365 365 365 367 368 369 370 370 370 369 367 366 365 364 363 362 361 361 361 359 357 354 349 344 340 341 340 343 346 344 345 345 346 341 340 335 333 331 336 338 339 342 346 345 344
341 341 342 344 344 346 347 348 350 350 351 352 353 355 357 359 359 360 359 360 360 361 360 359 360 359 358 357 356 356 357 358 360 359 359 360 359 361 363 363 366 367 366 367 368 368 369 369 370 368 367 366 365 364 363 362 362 361 359 355 353 352 351 348 345 345 342 341 345 344 344 343 341 340 342 342 335 331 330 333 337 340 342 344 348
342 342 343 344 345 346 348 349 350 350 351 354 354 355 356 358 358 359 358 359 360 360 360 360 360 360 358 357 356 356 357 358 358 357 358 359 358 360 362 363 363 364 366 367 368 368 369 369 368 367 367 365 364 364 364 363 362 361 360 357 354 351 352 350 346 347 346 344 343 345 341 340 341 339 337 337 336 338 331 332 334 336 335 339 346
341 342 343 345 346 347 348 348 350 350 351 352 353 354 355 356 357 358 358 359 360 360 361 360 360 360 358 357 357 356 357 357 356 356 357 358 357 358 360 361 363 364 364 366 366 367 368 369 367 366 367 366 365 365 364 361 360 360 359 358 356 352 352 351 349 350 349 349 346 344 341 338 337 335 337 336 336 334 332 329 331 333 333 333 341
340 341 342 344 345 346 347 347 348 350 350 351 352 353 354 355 356 357 358 359 359 359 360 359 359 359 359 359 357 357 358 356 355 355 356 356 357 357 360 361 363 364 365 364 364 364 367 367 367 367 365 364 362 365 365 363 361 359 358 356 355 353 354 351 349 348 347 348 345 342 342 340 340 337 337 340 338 335 334 333 332 338 338 337 343
339 340 341 342 343 344 345 346 348 349 349 350 350 351 353 355 356 356 357 359 359 359 359 360 359 359 359 359 358 359 358 358 357 356 358 356 357 357 359 358 361 362 363 362 364 365 367 365 365 363 362 362 363 364 365 363 361 358 357 355 353 353 351 351 349 348 347 345 343 343 344 341 341 342 340 337 338 341 337 333 333 334 332 334 340
339 339 340 341 343 344 345 346 347 348 349 349 350 351 352 353 355 355 356 358 359 359 358 359 359 359 361 360 359 359 358 358 358 357 358 358 358 358 357 357 359 360 361 362 364 366 365 365 364 364 365 365 364 364 365 363 361 358 357 354 352 353 352 352 350 347 349 349 348 345 343 342 341 343 341 340 337 336 335 333 336 335 333 331 339
339 339 340 340 342 344 344 345 346 347 347 348 349 350 353 353 354 355 356 358 358 358 358 358 359 360 361 361 360 360 358 357 357 358 358 358 358 358 359 359 359 361 362 365 367 366 366 365 364 363 364 364 363 363 364 362 360 359 357 356 353 354 353 351 350 348 347 348 348 347 345 345 344 346 343 340 339 337 336 336 336 332 329 330 331
338 339 339 341 343 345 344 345 346 346 348 347 348 351 351 352 355 355 356 357 357 357 358 358 359 360 361 361 360 360 360 359 358 359 360 359 359 359 360 361 361 362 365 366 366 366 365 364 364 362 363 363 362 364 363 361 359 357 356 355 353 353 352 352 351 349 347 349 348 348 349 342 346 344 343 342 342 341 340 340 339 335 330 327 331
337 337 339 341 342 344 344 345 344 345 346 347 349 351 351 353 353 354 355 357 357 358 357 358 359 359 360 360 360 360 359 358 357 357 356 359 360 360 359 360 361 363 363 364 364 366 366 365 363 362 363 362 362 364 363 361 359 357 355 354 352 350 352 352 350 349 349 345 347 349 347 346 348 349 347 345 346 347 344 344 341 337 336 329 329
337 339 341 342 342 342 343 343 344 344 345 347 350 351 352 353 352 353 354 355 356 356 356 357 358 359 359 359 360 360 358 358 358 357 357 358 359 359 359 359 359 360 361 362 364 364 365 364 364 363 362 361 361 362 362 361 359 356 355 354 353 354 352 352 352 350 349 350 348 348 347 345 349 348 346 346 348 347 344 343 342 341 342 333 331
335 337 339 339 340 341 342 342 343 344 346 348 349 349 350 351 352 352 353 353 355 354 356 358 358 358 358 359 359 359 359 359 359 359 359 358 356 357 357 357 359 361 362 363 363 362 363 363 363 363 362 360 360 362 362 360 358 356 354 353 353 353 351 350 352 350 349 349 348 346 349 346 349 346 347 347 348 347 345 344 343 344 344 339 337
334 335 336 338 339 340 341 341 341 342 344 345 346 346 346 348 350 351 352 354 355 355 356 356 357 357 357 359 360 360 360 359 359 359 358 357 357 356 357 356 358 359 360 362 362 361 362 361 361 360 360 360 360 361 360 359 357 356 354 351 352 352 350 350 349 349 347 349 348 347 348 348 348 347 346 346 347 348 347 345 344 344 343 343 341
332 333 335 337 338 339 340 341 342 342 344 344 344 344 345 346 348 349 351 352 352 353 354 356 356 356 358 358 358 359 359 359 359 359 358 358 358 358 357 358 360 359 360 360 361 361 362 362 360 361 362 362 362 360 360 359 357 355 354 353 353 351 350 349 350 350 348 348 348 347 348 348 349 346 345 345 344 347 348 345 346 344 342 344 342
332 333 334 335 338 339 340 341 342 341 341 342 342 344 344 345 346 348 349 350 350 352 354 355 356 356 356 357 357 357 358 358 357 357 358 357 357 358 359 359 358 359 360 359 361 361 362 362 361 362 363 363 362 362 359 358 356 354 354 353 352 351 350 350 350 349 349 348 348 348 347 347 349 346 345 344 344 343 344 342 344 342 341 343 343
330 331 332 334 337 339 339 341 342 341 342 341 342 342 343 344 345 347 347 348 350 350 353 356 356 356 357 357 357 357 357 358 356 356 356 355 357 358 359 358 357 357 359 359 360 360 362 363 361 362 363 362 362 362 360 358 356 355 354 352 351 351 350 349 349 348 348 349 347 347 346 347 346 344 345 344 344 344 344 343 343 344 343 342 345
332 332 330 333 336 339 341 342 343 343 344 341 341 342 343 343 344 345 346 347 349 350 352 355 355 355 356 357 357 357 356 355 354 355 355 355 355 357 358 357 356 356 357 359 360 361 362 362 361 362 362 362 362 361 360 359 357 356 355 354 352 351 351 350 349 349 348 348 346 346 345 346 346 344 344 344 344 345 345 345 344 347 346 344 347
332 333 333 334 333 337 339 341 342 343 342 343 342 342 342 343 344 344 346 347 349 351 351 352 353 352 354 355 355 355 355 355 354 354 355 355 355 355 357 356 356 355 357 358 359 361 361 361 359 360 361 361 361 361 360 358 358 357 356 355 354 352 352 351 350 350 348 349 347 346 346 346 346 344 345 344 344 344 344 344 343 345 345 345 345
336 337 336 334 336 339 339 342 342 343 341 344 344 341 341 342 344 345 345 347 348 350 350 351 352 351 353 354 355 355 354 354 354 354 354 355 355 355 356 356 356 356 357 357 358 359 359 360 360 360 361 361 361 361 360 359 357 356 356 355 354 353 352 352 351 351 350 350 348 348 347 347 346 344 344 345 346 345 345 344 343 344 344 345 345
331 336 337 342 342 339 339 342 341 340 342 342 341 341 341 344 344 344 345 347 348 349 351 350 350 350 353 354 354 355 355 354 356 355 355 355 355 355 355 355 356 356 356 356 357 358 359 359 360 360 360 361 361 360 360 360 358 357 356 355 353 353 352 352 351 350 350 349 349 348 348 348 347 346 345 345 347 346 344 344 344 345 345 345 344
334 334 337 339 341 341 341 343 341 340 343 341 342 342 342 344 344 344 345 346 348 350 351 351 351 351 353 353 355 356 357 357 357 358 357 356 356 356 357 357 357 356 355 356 356 357 358 359 359 360 361 361 361 360 360 360 359 357 355 354 353 352 351 351 351 350 349 348 348 348 347 347 347 347 347 347 348 346 346 344 345 345 345 344 342
327 335 338 339 339 342 340 342 342 340 340 341 342 342 345 347 345 346 344 345 350 350 351 350 351 352 354 356 357 357 358 359 358 358 357 357 357 357 358 358 358 357 356 356 357 357 358 358 359 359 360 360 359 359 359 359 358 357 356 354 353 352 351 350 350 349 348 348 348 347 346 346 348 344 343 344 344 341 346 344 346 346 345 344 343
326 333 334 340 340 342 344 344 344 341 342 340 342 343 343 343 344 345 346 346 349 351 352 350 351 354 357 357 358 358 358 359 358 358 358 358 357 358 357 358 358 357 358 358 359 358 358 357 357 358 359 359 358 359 346 334 339 356 356 354 353 352 352 350 350 348 347 347 346 346 346 342 340 341 341 339 336 336 337 342 347 347 345 344 343
329 335 334 337 340 341 344 345 345 343 343 342 343 343 344 342 343 343 346 347 349 352 350 350 351 354 356 358 357 358 359 358 358 359 359 359 358 359 359 359 359 359 358 359 358 358 357 357 357 357 357 357 357 355 333 330 332 335 352 355 353 352 352 351 349 349 348 347 347 347 347 345 342 340 343 337 336 334 335 335 336 340 341 346 344
328 332 333 335 336 339 340 341 340 340 342 343 343 343 342 341 343 343 344 346 347 348 349 352 354 356 357 357 356 358 358 357 358 358 359 359 359 359 358 359 359 359 359 359 358 358 358 357 357 357 356 357 357 338 329 328 329 329 336 354 354 353 351 350 350 349 349 348 347 346 346 347 347 346 345 345 340 335 332 332 332 333 334 334 336
335 335 335 330 331 336 341 339 339 340 340 341 343 342 343 344 345 346 347 346 346 347 351 353 356 357 358 358 359 358 357 358 358 358 359 359 359 359 359 359 358 359 359 359 358 357 358 358 357 357 356 356 357 335 328 326 327 327 328 340 354 353 351 350 350 350 349 349 349 347 346 346 347 339 342 346 347 345 334 329 331 332 332 330 329
327 329 329 333 336 335 336 339 342 342 340 341 343 342 345 345 346 349 347 348 350 350 351 353 356 357 358 358 358 357 357 358 358 359 359 359 358 358 358 358 358 359 359 358 358 358 358 358 358 357 357 357 357 334 326 324 324 324 326 333 353 353 352 351 351 351 350 350 350 349 347 346 347 346 346 346 347 348 348 344 341 341 341 338 330
331 332 328 333 336 336 338 339 338 338 340 342 342 342 344 344 347 347 349 351 352 352 353 355 356 357 358 358 358 358 358 359 359 359 358 358 357 358 358 358 357 357 358 358 357 357 358 358 358 357 357 356 356 330 323 322 321 321 323 327 351 353 352 352 352 352 351 351 351 350 350 349 349 347 346 346 347 347 347 347 346 344 343 344 344
327 333 336 338 333 336 334 338 340 340 339 340 340 341 341 341 344 345 346 349 350 351 351 356 356 356 357 358 358 358 358 359 359 358 358 357 358 358 358 359 359 358 359 358 359 358 357 358 358 358 356 356 356 327 322 321 320 319 321 338 349 352 352 352 352 352 352 352 352 351 350 349 349 348 340 332 339 348 347 346 345 346 346 346 346
333 332 331 336 338 337 336 340 340 339 338 338 339 340 341 341 342 343 349 347 349 352 354 355 354 355 356 357 357 357 358 358 359 358 358 357 357 358 359 360 358 358 357 356 357 357 358 358 358 358 357 356 357 334 320 318 318 317 323 344 348 351 352 351 351 352 352 352 351 351 351 349 349 349 336 326 329 337 346 345 345 345 345 344 343
343 344 338 336 336 337 337 336 337 339 339 340 341 341 343 345 344 344 347 346 348 351 353 354 354 356 357 358 358 358 358 358 358 357 357 357 358 359 359 360 358 356 355 356 357 358 358 359 357 357 357 356 357 337 316 316 316 315 326 345 348 350 350 350 351 352 353 352 351 344 347 350 349 350 326 323 325 335 344 345 345 344 342 341 342
345 345 343 343 342 342 337 339 338 336 340 343 342 342 342 346 348 343 344 346 349 351 352 353 354 356 358 359 358 359 359 357 358 358 358 358 358 359 359 360 358 358 357 359 358 357 358 359 358 357 342 351 357 338 315 316 315 314 328 348 349 350 349 349 350 350 352 352 352 344 337 342 345 341 320 321 321 331 344 346 345 344 340 339 341
345 343 343 344 347 343 338 337 336 343 345 346 344 345 346 349 345 344 345 347 349 351 355 356 355 357 357 357 356 359 358 357 358 359 359 359 360 359 359 359 358 358 357 358 357 357 356 356 358 357 357 355 355 356 330 314 314 313 319 347 351 349 348 349 350 350 349 349 349 350 340 325 326 322 317 316 317 321 341 346 346 343 340 339 343
344 343 346 347 347 348 346 346 349 351 343 344 344 346 348 348 351 349 347 347 351 355 358 358 358 355 354 357 358 358 358 359 360 359 358 359 359 358 358 358 357 357 357 356 357 356 355 356 356 358 357 357 357 357 336 312 312 312 315 328 351 350 351 350 350 349 350 349 348 348 349 326 319 317 314 313 313 315 327 346 346 344 343 344 339
345 346 347 347 346 348 348 347 349 349 346 345 349 350 352 353 352 350 352 353 356 357 358 359 358 357 356 357 357 358 360 359 360 361 360 359 360 360 359 359 358 358 358 357 357 356 356 356 357 358 358 358 351 340 348 315 314 312 314 319 345 352 351 352 350 350 350 349 348 347 347 329 316 315 314 311 311 313 320 344 345 325 317 323 341
345 346 346 347 347 346 344 345 346 347 349 349 346 351 352 353 351 354 355 356 358 358 360 359 360 358 358 358 359 360 360 359 360 361 359 359 360 359 360 361 360 359 358 356 357 357 356 355 357 357 358 359 360 352 327 326 313 312 311 315 325 340 332 352 351 350 348 349 349 347 345 320 314 312 310 309 310 312 318 335 313 312 316 323 334
342 344 346 347 346 344 343 342 343 345 348 351 353 350 351 351 355 356 354 356 358 360 360 359 359 358 358 357 358 360 360 361 361 361 360 361 360 360 360 360 360 358 357 356 355 356 356 354 354 354 355 356 358 358 329 320 321 312 312 313 317 324 326 346 352 351 352 350 348 347 339 314 310 306 307 309 310 313 329 311 309 314 318 325 337
342 342 345 345 345 344 343 342 343 344 344 347 352 353 351 349 350 355 359 356 356 358 358 357 356 357 359 359 360 361 361 362 362 361 360 359 359 360 359 360 359 357 356 355 355 355 355 354 354 354 355 356 357 358 346 326 317 313 313 312 315 319 321 324 347 351 351 349 333 322 314 309 310 308 308 309 310 314 313 309 312 316 326 335 337
341 343 343 343 342 343 342 341 342 344 346 345 345 347 346 345 348 351 357 360 359 359 358 357 357 358 357 358 359 359 362 362 362 361 360 361 359 359 358 359 358 356 356 355 354 354 354 354 353 354 355 357 358 357 348 334 321 316 316 314 316 318 321 322 334 345 331 324 317 315 312 311 310 312 319 324 327 325 313 314 315 323 335 334 334
340 340 341 341 340 338 338 339 339 342 343 345 347 345 345 347 348 351 354 359 359 358 358 358 359 356 358 359 358 358 359 361 362 360 360 360 359 359 359 358 357 355 355 355 355 354 353 353 352 353 354 355 355 355 351 341 334 331 329 325 321 324 320 321 336 334 322 327 321 320 319 315 316 315 322 321 321 315 318 322 328 333 335 334 333
339 340 341 341 339 337 337 337 337 340 342 342 344 345 347 349 350 352 354 358 361 358 354 356 357 358 358 358 358 355 355 356 358 359 357 358 359 360 359 358 357 357 356 355 355 354 353 354 353 353 355 355 354 353 351 345 338 337 336 334 331 331 331 335 337 333 332 327 324 313 313 319 320 324 325 324 322 325 328 328 330 331 332 332 332
338 338 338 337 336 336 337 337 337 339 340 340 341 343 345 347 349 352 355 356 357 359 360 357 355 354 354 356 355 356 354 355 357 360 361 360 360 360 362 361 363 364 361 358 357 356 356 357 356 356 357 357 355 352 351 334 343 328 334 335 332 333 334 338 329 321 327 324 322 323 323 322 324 324 323 322 323 325 325 327 328 329 329 329 329
338 338 338 337 336 336 336 336 338 340 340 340 341 342 344 346 349 351 354 353 353 353 353 352 353 355 356 357 353 352 353 353 354 355 358 361 326 313 335 352 354 324 313 309 316 343 350 353 357 359 360 358 357 356 332 319 316 314 315 316 319 319 320 329 317 315 321 323 324 324 324 325 325 325 323 323 323 323 323 323 324 321 326 328 328
336 336 335 335 336 337 337 336 337 339 339 340 341 342 343 345 347 349 351 351 351 347 346 346 346 345 343 350 351 353 353 354 355 356 357 356 357 345 305 309 318 321 317 311 311 310 309 312 334 349 350 332 331 329 313 311 310 309 309 309 310 311 312 308 309 321 325 326 325 324 325 325 325 326 324 324 324 323 323 323 322 322 326 327 326
Wind_Speed
15 17 18 19 19 16 15 14 14 15 15 15 16 16 16 15 14 15 14 14 12 12 11 11 11 11 10 11 11 9 9 9 8 7 7 7 7 6 6 6 6 6 6 6 6 5 5 5 5 4 5 5 5 5 5 4 3 3 3 3 3 3 2 2 2 1 2 2 3 3 2 1 2 1 1 2 2 1 1 1 1 1 2 1 2
14 14 17 18 17 18 16 14 15 18 17 17 17 17 16 16 16 15 12 13 13 13 11 11 10 10 10 10 9 8 8 8 8 7 7 6 6 6 6 7 7 7 6 6 6 6 6 5 5 5 5 5 5 4 4 3 3 3 3 3 2 3 2 3 3 3 3 4 4 3 2 2 1 1 1 2 2 1 1 1 1 0 1 2 2
16 17 18 18 19 19 16 15 15 17 18 18 17 17 17 16 15 14 13 14 13 13 11 11 10 10 10 8 9 7 7 7 7 6 6 7 7 7 7 7 7 7 7 7 6 6 7 6 6 5 6 5 5 5 4 5 4 5 6 5 3 2 2 2 3 4 2 2 0 2 4 4 2 2 2 1 2 2 2 2 0 0 2 2 2
19 19 20 19 19 18 17 16 16 16 16 16 17 19 16 15 15 15 14 14 13 14 13 11 11 10 9 7 7 7 5 6 6 6 6 7 8 8 7 8 8 7 7 7 6 6 7 7 6 6 6 6 5 5 5 5 5 5 6 5 3 3 4 4 3 3 2 4 4 4 2 4 3 4 4 1 2 2 2 2 1 1 0 1 1
16 17 18 19 20 21 20 18 16 17 18 18 18 17 13 18 17 17 14 15 13 13 14 12 10 10 11 7 6 6 5 6 6 7 8 8 8 8 8 8 8 7 7 7 7 7 7 7 7 6 6 6 5 5 5 6 6 6 5 4 5 4 4 3 3 4 4 3 2 3 3 4 4 2 4 2 1 3 4 3 1 2 1 1 0
16 19 20 20 19 17 17 18 19 18 18 18 17 18 16 15 16 15 13 13 13 15 14 12 12 11 10 10 12 11 10 10 10 10 9 9 9 7 7 8 8 7 7 7 8 7 7 7 7 6 6 6 6 6 6 5 6 6 6 5 5 6 4 3 3 3 3 4 3 1 2 2 3 2 3 4 1 1 1 2 1 2 2 2 1
16 16 16 18 19 20 20 19 20 19 19 17 16 17 18 15 16 16 14 13 13 13 17 13 13 12 14 14 12 12 11 10 8 8 8 7 7 8 6 7 8 8 8 8 8 8 7 7 7 7 6 6 6 6 7 7 6 6 4 5 5 5 5 4 4 4 3 3 4 4 3 3 1 4 4 1 4 2 1 3 4 3 3 3 4
16 19 19 20 20 21 22 23 21 21 19 17 17 17 18 18 17 17 14 13 14 16 18 16 15 13 14 13 11 11 12 9 9 8 7 6 7 8 7 6 7 8 8 8 8 8 7 7 7 7 7 7 7 7 7 7 5 4 5 5 5 5 6 5 5 5 5 4 4 4 5 2 2 4 4 6 3 4 5 3 4 4 4 5 4
18 17 20 21 22 23 21 21 21 20 18 18 18 17 16 16 16 15 15 16 14 18 18 19 15 13 13 12 11 10 10 8 7 7 7 8 9 8 8 7 7 7 8 8 8 8 7 7 7 7 7 7 7 7 7 7 7 6 6 5 6 5 5 5 5 4 5 4 5 4 3 3 4 3 2 3 4 5 4 6 5 3 4 5 5
18 19 19 20 21 21 21 19 19 19 18 17 17 15 14 14 15 16 17 15 16 20 19 18 19 13 13 13 15 11 10 8 8 8 8 8 9 9 8 7 7 7 7 8 8 8 8 8 7 8 8 8 7 7 7 6 6 7 7 7 7 7 5 5 6 4 4 4 4 4 4 3 3 3 4 5 3 4 4 5 6 7 7 5 4
18 19 19 19 20 19 18 19 19 18 16 17 16 15 15 15 15 16 17 14 16 19 18 19 19 15 14 15 16 14 13 11 10 9 9 9 10 10 9 9 8 7 7 7 9 9 9 8 8 8 8 7 7 7 7 7 7 7 7 7 7 8 5 6 5 5 3 3 4 4 5 5 4 4 4 5 5 4 4 5 5 6 7 6 5
19 18 18 19 18 18 18 19 19 19 18 18 17 16 15 15 15 17 17 17 17 18 19 18 17 17 15 15 15 14 13 11 13 12 12 12 12 10 9 7 8 7 7 7 8 10 8 7 8 7 7 9 9 8 7 7 6 6 6 6 6 7 6 6 6 6 6 4 5 5 5 5 3 4 3 4 4 4 4 5 3 2 2 5 1
19 19 18 17 18 19 20 20 19 18 18 19 19 18 17 16 18 18 18 17 16 17 19 18 18 17 16 16 15 13 14 13 13 13 12 11 11 10 9 9 8 8 8 9 9 11 8 7 8 8 9 9 9 9 7 7 6 6 6 7 7 7 6 7 6 7 6 5 5 5 5 4 4 4 3 3 3 2 4 4 3 3 4 4 3
20 20 20 19 18 18 20 20 19 18 20 20 20 19 16 16 18 19 19 17 16 17 19 18 19 19 16 15 14 12 13 13 12 12 12 11 10 11 11 11 10 11 10 10 9 10 9 8 9 10 9 9 9 10 8 7 7 6 7 7 8 7 6 8 7 7 6 6 5 4 5 5 5 4 4 4 4 4 4 5 3 2 4 4 1
18 18 20 21 20 21 20 19 18 19 21 21 19 19 16 16 17 19 19 18 18 18 16 18 17 17 15 14 13 12 13 12 12 11 11 11 11 12 11 11 10 10 10 9 9 10 10 9 10 11 10 9 10 10 7 7 7 6 6 7 7 6 7 7 6 7 6 6 6 5 5 5 4 4 4 5 4 4 4 4 4 4 4 5 4
20 20 20 21 19 19 18 18 18 18 20 20 21 18 18 18 18 20 20 19 19 19 18 18 17 15 16 16 16 14 12 11 10 10 10 12 12 12 11 11 10 9 8 9 10 10 10 10 10 11 11 10 12 9 9 7 8 8 7 7 8 5 6 8 6 7 8 8 7 6 4 6 4 5 5 4 4 4 3 3 4 5 4 4 4
18 20 20 22 20 18 18 19 19 20 19 20 20 19 21 18 18 20 20 18 19 19 19 17 17 16 17 17 16 15 15 15 14 15 15 12 11 11 11 11 10 9 8 9 10 10 10 10 10 11 11 11 12 9 9 8 8 8 8 8 8 8 7 7 7 6 7 7 6 7 6 5 4 3 4 4 4 3 4 4 5 5 5 5 4
22 22 20 19 19 21 20 18 20 21 23 23 21 20 18 18 20 20 19 20 20 20 20 18 18 18 16 17 17 16 16 16 15 14 14 12 11 10 11 10 12 11 9 8 10 11 10 11 10 10 10 11 12 9 9 9 9 8 8 8 8 7 7 6 6 7 7 6 6 6 5 5 4 4 5 5 4 5 5 5 5 6 5 6 5
16 18 16 17 19 20 22 23 24 22 21 20 20 20 18 19 20 21 22 23 22 19 18 15 16 14 14 16 17 16 15 15 14 13 13 13 14 13 13 12 11 10 9 9 10 10 10 11 11 10 10 11 13 10 9 9 9 8 8 8 8 8 7 7 7 7 6 6 7 7 6 5 4 5 5 5 4 5 5 5 5 5 5 7 6
16 17 18 20 22 24 24 24 24 23 22 21 22 20 22 22 20 20 20 18 18 19 18 18 18 17 15 14 15 15 15 14 14 13 13 14 14 14 14 13 12 11 11 11 10 11 11 12 11 12 12 12 12 10 10 9 9 9 8 8 8 9 9 9 8 7 6 7 8 8 7 6 5 5 5 5 5 5 5 5 5 5 6 6 6
16 17 18 21 23 23 24 23 22 21 19 19 19 21 22 21 21 22 21 22 22 21 19 18 16 17 17 17 17 16 17 15 15 15 14 14 14 13 13 12 10 11 11 12 12 12 12 12 13 12 12 11 11 10 9 9 9 9 9 9 9 10 10 8 8 8 8 7 8 8 8 8 7 7 6 6 6 5 5 5 5 5 6 6 6
15 16 18 18 19 19 20 18 17 17 18 20 19 19 21 21 21 22 21 20 22 20 18 17 17 17 20 19 19 17 17 16 17 16 16 14 14 13 13 12 12 12 12 13 13 12 12 12 13 13 12 12 11 11 11 10 10 10 10 8 9 10 10 10 8 9 9 7 8 8 8 8 7 8 8 8 7 7 7 6 6 6 6 6 6
10 12 13 14 16 18 18 19 20 21 19 21 20 20 20 23 22 21 22 23 23 22 20 17 18 17 20 18 18 17 17 18 19 17 18 17 15 14 13 13 13 13 12 13 13 13 13 13 13 12 12 12 12 12 11 11 11 12 12 11 10 11 11 11 10 10 10 9 9 9 9 8 6 8 8 8 8 8 8 8 8 7 7 7 6
9 10 12 12 13 13 13 15 15 18 16 18 19 19 19 20 21 20 24 25 23 20 18 17 17 18 19 18 18 17 19 20 20 18 19 19 16 15 14 15 15 13 13 13 13 14 13 13 13 13 13 12 13 12 12 12 12 12 12 12 11 11 11 12 11 11 11 10 10 10 10 9 9 9 9 8 8 8 8 7 8 7 7 7 6
7 9 10 10 12 15 15 16 17 17 16 17 17 18 19 19 19 21 21 23 20 19 18 19 20 21 20 19 20 19 19 21 21 18 20 19 18 16 15 16 15 15 15 13 13 13 13 13 13 14 14 14 14 13 13 13 12 12 12 12 12 12 12 12 12 11 12 11 11 11 10 11 10 10 10 9 9 10 9 9 9 8 7 7 6
7 7 9 13 15 14 15 16 15 15 18 17 17 18 19 19 20 21 20 19 20 18 19 19 19 20 19 21 21 20 21 22 21 20 20 20 18 17 16 15 17 17 16 15 14 13 13 14 15 15 15 14 14 13 14 14 14 13 12 12 12 12 12 12 12 12 12 11 11 12 11 11 12 12 11 10 10 12 10 9 10 9 8 7 7
7 8 8 6 8 14 17 16 15 18 17 17 18 19 19 17 20 21 19 18 18 18 18 19 20 21 19 20 20 20 20 20 19 19 18 18 19 18 18 17 17 18 17 16 16 16 14 15 15 15 15 14 14 14 13 13 13 13 13 13 13 12 12 11 12 12 12 12 12 12 12 12 13 12 12 11 10 10 9 11 10 9 8 8 8
4 6 9 12 12 13 14 14 15 16 16 17 17 19 19 18 19 19 19 18 16 17 18 18 18 19 18 19 19 19 18 18 17 17 17 18 18 18 17 16 16 18 18 18 17 17 15 14 15 15 15 13 13 13 13 13 13 13 12 13 13 12 12 12 12 12 12 12 13 13 13 13 13 13 13 11 10 9 9 10 10 9 9 9 9
7 8 9 10 12 13 14 13 14 16 17 19 17 18 16 14 16 16 18 19 17 17 18 18 17 18 17 17 16 16 15 16 17 16 17 17 17 17 16 16 16 17 16 18 17 17 16 16 16 15 15 14 13 13 12 13 13 14 13 13 14 13 13 12 12 12 12 12 12 12 13 13 13 14 15 12 11 10 9 10 9 9 10 9 9
8 9 11 11 12 12 12 11 12 16 17 18 16 17 18 19 18 18 18 19 16 16 16 18 19 17 15 14 14 14 15 16 16 16 17 17 17 17 17 17 16 16 15 15 16 16 17 16 16 16 15 13 13 12 14 18 16 13 14 12 12 12 13 12 12 12 12 13 13 13 12 15 14 15 15 15 15 15 14 11 9 10 10 9 9
7 7 9 10 11 11 10 11 13 16 18 18 17 17 17 21 19 20 19 18 18 15 18 19 20 17 14 13 14 15 14 16 17 16 16 17 18 16 16 16 15 16 16 15 15 17 17 16 17 16 16 14 13 12 18 18 19 18 14 13 13 13 13 13 13 12 12 12 12 13 11 12 14 13 14 17 17 17 16 16 14 10 10 10 10
8 8 7 8 10 12 13 15 17 17 17 15 16 16 18 20 20 20 20 19 18 18 19 19 17 14 13 15 15 15 16 17 16 17 17 17 16 16 16 16 16 16 16 15 16 16 15 16 15 16 17 15 14 15 18 20 20 20 17 13 12 12 12 13 13 13 11 11 11 11 11 9 10 13 13 13 15 16 16 16 16 14 13 14 12
9 8 7 9 11 12 14 16 15 16 17 20 18 17 17 19 18 19 16 17 19 20 20 18 13 14 15 15 14 15 16 16 17 17 16 15 16 16 16 16 17 16 15 16 16 17 16 16 16 17 17 16 15 16 19 21 21 21 21 17 12 13 13 13 13 13 12 11 10 10 10 9 8 14 12 12 11 13 15 16 15 15 14 14 14
8 9 8 9 7 7 9 13 13 15 19 18 17 17 16 16 16 12 15 16 16 16 16 15 15 15 15 15 16 17 17 17 16 15 15 16 17 18 18 17 16 15 15 16 17 18 17 17 16 16 15 15 16 16 21 21 22 22 21 18 13 13 13 13 13 13 12 12 12 11 10 10 9 11 12 12 11 11 10 11 11 11 11 13 13
9 9 10 7 6 8 9 10 14 15 13 12 13 15 14 13 12 14 15 14 14 15 14 12 13 13 13 14 16 17 17 16 16 16 16 17 18 17 17 16 16 17 17 17 17 18 17 16 16 16 14 15 15 16 21 22 22 22 21 19 14 12 12 12 12 12 12 12 12 12 12 11 10 11 11 13 12 11 10 9 10 11 12 11 11
9 6 6 7 8 9 10 11 10 10 12 14 16 15 14 14 15 15 15 16 15 15 15 11 12 13 15 16 17 16 15 15 16 16 17 18 18 18 18 16 15 15 15 15 15 16 17 17 17 17 17 17 16 17 20 22 22 21 21 14 14 14 13 12 12 12 12 11 12 12 11 11 11 11 13 16 13 10 10 10 10 10 9 9 10
8 7 10 7 8 8 8 7 8 10 12 14 14 15 15 14 14 14 13 14 14 13 13 13 15 15 16 15 16 16 15 15 15 16 17 18 17 17 15 14 15 15 16 17 19 17 16 17 18 17 18 16 15 16 21 22 21 22 17 13 14 13 13 13 12 12 12 12 12 12 12 11 11 11 13 17 15 12 9 10 10 10 8 9 10
7 7 7 7 8 7 6 7 8 10 12 11 13 13 13 13 14 14 13 14 14 14 14 14 15 15 15 14 14 15 16 16 16 18 19 18 17 14 15 14 16 16 17 18 17 18 17 16 18 19 18 17 16 15 22 22 23 23 20 15 12 14 18 17 13 12 11 11 13 15 14 12 12 11 15 17 16 13 10 10 10 9 10 10 8
4 5 6 5 3 4 6 7 9 10 10 11 12 14 14 12 12 15 16 14 15 15 14 15 15 14 14 14 15 15 14 16 17 18 17 18 17 16 15 14 16 15 16 14 15 18 16 15 17 19 18 19 17 15 23 22 24 23 20 13 13 14 18 18 16 14 13 11 10 13 17 14 12 11 17 17 16 14 11 10 10 9 10 11 9
1 1 1 1 1 3 2 5 7 5 6 11 12 12 13 12 12 13 14 14 16 16 13 11 10 12 13 14 14 14 16 16 16 15 15 16 14 14 15 15 15 15 16 16 17 17 20 19 18 18 15 19 20 13 18 25 25 24 26 16 13 15 19 19 18 16 15 14 14 12 13 17 14 13 17 17 17 17 12 10 10 11 10 10 8
1 3 3 6 7 7 7 5 4 3 2 7 9 10 10 11 10 10 14 15 10 5 7 9 10 13 15 15 13 15 16 14 14 14 15 14 14 15 16 16 17 16 17 19 19 20 19 19 20 18 19 20 17 17 15 25 25 26 28 22 16 17 17 17 18 16 14 15 12 13 11 14 16 16 17 18 18 18 14 10 10 8 9 5 7
3 4 5 7 7 8 7 7 6 5 2 5 7 8 7 7 9 11 10 5 5 7 8 9 11 12 13 13 14 13 13 12 12 12 13 14 13 14 14 16 15 15 18 19 20 19 17 19 17 18 18 21 18 22 12 24 26 28 28 29 17 17 17 16 17 16 13 14 13 11 11 13 18 16 17 18 18 17 16 8 9 8 12 13 8
4 5 5 7 8 9 8 7 7 8 6 2 6 7 6 6 7 5 4 4 6 8 9 10 10 11 11 12 12 13 11 11 11 12 14 14 13 14 15 14 15 15 17 20 20 18 19 20 17 14 15 16 15 15 19 17 25 27 28 28 28 19 20 15 13 15 17 14 11 13 10 15 18 17 17 17 16 17 14 9 12 13 13 12 9
4 5 6 9 10 9 10 10 10 10 8 7 3 6 5 6 5 5 1 5 6 7 8 9 9 11 11 12 12 13 13 12 13 13 13 12 12 12 12 12 14 15 13 16 17 17 15 18 15 14 15 14 15 13 18 24 22 28 27 29 29 24 21 16 14 11 10 11 12 10 10 17 18 18 17 16 15 14 11 13 15 15 15 12 8
5 6 6 8 10 11 11 12 11 12 10 9 7 7 9 6 3 3 1 3 7 8 9 9 10 10 10 10 10 11 12 12 12 14 14 13 15 14 13 15 15 16 18 19 18 16 16 19 17 16 14 13 13 10 9 19 27 26 28 29 29 28 22 21 15 11 10 10 11 14 16 18 18 18 16 14 12 13 12 15 15 16 13 8 8
5 6 7 9 11 11 12 12 11 10 10 11 10 9 9 5 3 2 1 0 3 6 8 9 9 9 10 11 11 12 12 12 13 13 13 13 14 14 14 13 14 17 17 17 16 15 13 16 17 19 17 14 10 11 2 6 13 22 24 29 30 29 25 22 20 13 14 15 17 18 20 19 16 13 11 8 8 8 12 15 16 15 10 9 10
8 6 6 7 10 12 13 12 12 10 9 9 11 10 8 5 4 3 2 1 1 3 5 5 7 7 8 9 11 10 9 11 12 12 12 12 12 13 13 12 14 17 17 15 14 15 15 14 13 16 13 9 9 10 10 12 11 11 11 14 16 17 21 18 15 10 14 14 18 17 14 15 12 16 13 11 10 12 10 9 8 9 10 10 9
9 8 8 8 10 12 11 12 11 9 9 9 9 10 9 7 6 6 5 3 2 2 3 3 4 4 5 7 8 9 10 10 11 12 12 12 12 13 13 14 14 15 15 14 15 16 16 16 17 18 14 14 11 12 11 12 13 12 12 13 14 13 13 12 13 13 13 14 12 16 16 11 12 11 10 10 9 10 10 11 11 10 10 9 8
10 10 11 10 10 11 12 13 12 9 10 10 11 10 10 9 8 7 6 5 5 5 4 4 3 3 3 3 5 6 8 9 8 10 10 10 11 13 13 12 13 8 8 11 13 15 16 17 17 16 12 11 11 12 16 19 18 21 19 15 14 15 14 15 14 15 13 11 13 13 12 13 11 11 10 10 10 10 10 10 11 11 9 7 7
11 10 11 12 13 13 13 13 12 10 10 11 11 10 10 9 7 7 7 7 6 6 7 6 5 4 3 2 2 3 4 5 6 7 7 5 14 12 8 3 1 7 5 7 5 3 6 7 9 12 14 14 14 16 20 19 22 25 26 27 26 23 20 15 17 22 18 13 12 14 14 14 11 9 11 11 11 11 11 10 10 9 10 11 9
11 12 14 14 13 13 13 13 11 10 11 10 11 11 10 9 9 8 8 8 7 7 6 6 6 5 4 4 3 3 3 2 3 2 4 3 3 5 10 9 6 3 1 7 6 10 10 11 10 11 15 22 23 20 12 19 21 23 25 26 26 26 26 25 26 19 13 14 13 14 14 13 14 14 12 10 12 12 11 11 10 10 10 11 9
Wind_Direction
192 192 190 192 194 195 195 193 194 193 194 191 189 190 190 190 187 192 194 192 191 193 197 199 201 205 210 213 215 212 215 216 218 216 217 217 211 209 208 214 215 216 217 214 215 216 225 230 218 209 201 205 210 220 220 228 207 155 214 223 233 237 221 197 190 217 188 158 130 157 124 87 114 60 321 270 262 240 210 173 120 120 104 77 67
188 191 194 193 194 194 192 194 194 198 199 196 192 193 193 193 194 193 189 190 194 192 191 194 198 200 201 207 209 205 203 209 215 214 216 212 205 207 213 219 218 215 216 214 215 215 220 217 216 214 199 207 212 209 198 191 186 195 199 208 210 261 244 224 153 199 191 228 211 170 158 144 89 194 229 264 271 232 226 190 117 100 81 102 97
192 194 191 194 194 194 194 196 197 200 199 198 194 194 193 194 197 191 190 190 194 192 189 192 192 196 197 197 199 201 206 208 212 209 205 210 209 210 214 216 216 217 215 210 212 213 218 217 218 213 207 204 198 199 196 197 208 212 212 238 234 183 222 144 173 235 242 160 38 249 218 228 178 189 202 282 295 245 229 212 139 85 84 82 88
191 191 193 194 195 195 195 196 196 197 201 200 197 195 192 194 193 192 192 192 191 192 192 189 189 188 192 190 192 203 197 198 206 206 208 213 217 209 211 215 215 220 214 211 210 214 212 215 217 212 206 203 209 206 202 208 205 209 221 233 242 239 199 185 182 191 221 159 213 222 228 236 218 204 207 206 294 262 247 222 135 235 125 86 100
194 192 194 195 196 197 196 194 193 197 202 202 199 196 197 196 194 192 192 193 192 189 186 183 182 191 200 192 200 208 221 212 203 214 210 210 216 211 214 211 216 219 217 211 214 215 213 214 213 211 208 200 205 214 212 216 210 224 222 224 204 231 232 190 160 181 196 231 211 155 169 206 231 162 204 188 271 226 213 225 162 230 230 150 289
196 196 197 197 198 196 197 197 198 199 201 202 200 199 198 198 195 193 194 194 193 189 185 185 191 188 186 197 206 210 213 210 209 203 199 203 213 217 209 209 213 216 214 214 215 214 211 210 210 210 207 200 202 218 221 211 216 228 221 229 200 203 234 218 186 155 183 189 210 272 346 336 208 153 216 192 137 308 260 236 199 220 215 215 204
201 201 198 198 198 197 198 199 200 202 205 201 200 202 200 197 195 193 194 196 194 190 193 190 195 194 191 197 198 199 203 209 204 200 200 198 200 205 204 203 206 212 213 209 209 209 211 207 206 210 211 207 202 210 219 222 232 225 200 198 206 182 190 216 210 175 140 181 197 218 236 245 276 166 204 165 200 179 284 232 204 206 221 223 214
199 199 199 200 198 199 199 198 198 204 201 199 201 201 199 197 192 193 195 196 195 198 195 195 196 192 195 195 198 201 205 201 190 191 192 187 200 210 210 209 203 208 211 200 204 206 207 206 204 208 212 218 215 217 226 230 225 200 187 198 192 186 191 211 217 190 195 165 179 195 201 204 218 235 228 218 242 215 205 223 225 215 221 226 229
202 199 201 200 201 203 202 200 202 201 199 201 201 200 199 197 194 193 195 198 193 196 196 200 198 190 191 192 199 207 207 204 186 187 191 193 204 203 206 211 205 202 205 205 201 207 204 205 201 205 209 213 218 224 228 222 207 192 181 185 192 192 197 205 211 203 209 186 162 184 194 195 193 215 209 232 236 233 224 199 204 196 235 227 222
205 207 204 203 204 205 204 204 201 201 202 202 202 199 199 197 197 196 199 200 197 199 197 196 200 191 193 196 200 201 198 199 193 188 191 188 201 202 204 206 211 205 201 203 203 205 206 203 202 206 210 210 209 223 216 201 193 194 195 193 194 196 191 200 211 210 206 217 196 169 177 165 177 192 208 203 207 240 251 214 211 201 215 220 213
202 206 208 208 207 206 202 203 204 201 201 202 199 199 200 198 198 200 203 198 199 201 196 198 201 195 197 198 200 200 194 190 188 194 190 189 200 203 201 206 205 207 200 197 204 203 204 202 206 206 209 206 206 214 208 207 200 197 197 193 192 197 192 200 210 212 201 199 198 189 195 198 205 217 210 209 216 199 215 233 215 216 230 220 203
200 202 207 207 204 203 201 207 204 201 199 199 199 199 199 198 196 201 203 202 204 202 201 202 201 203 202 200 202 202 193 193 195 197 193 195 198 200 199 199 204 203 199 200 202 204 198 199 205 207 213 223 226 221 208 206 205 192 187 189 193 197 197 199 213 211 207 200 215 208 210 222 207 233 227 210 221 237 232 243 235 172 230 243 160
198 199 201 201 202 198 199 204 200 198 197 198 200 200 197 194 193 197 201 197 199 199 202 200 201 204 202 201 202 197 196 195 195 197 193 194 196 197 191 199 199 200 201 206 206 199 193 195 203 212 220 223 224 223 205 194 195 193 189 193 195 189 193 198 204 216 216 220 221 220 221 226 212 209 217 223 210 216 230 245 231 197 234 225 214
202 200 200 198 197 197 199 201 197 197 199 197 198 200 198 194 192 198 201 195 196 198 203 200 205 206 202 202 201 195 199 199 199 199 197 196 194 198 199 201 200 204 202 204 201 194 194 196 206 217 212 207 211 218 200 192 192 198 193 196 198 193 191 196 207 216 218 221 230 226 222 222 233 203 203 206 206 202 208 223 190 200 238 248 146
203 203 202 201 196 193 196 197 197 197 201 201 199 197 192 189 190 195 198 193 193 197 198 201 204 203 202 202 200 198 200 201 203 201 198 195 199 200 201 202 204 203 201 196 187 189 193 198 208 218 211 207 216 214 195 191 191 196 198 199 202 190 192 195 202 211 215 214 209 218 227 228 221 203 215 219 233 231 225 207 189 192 207 229 227
202 202 204 204 200 191 193 195 196 197 198 200 200 193 194 195 190 193 196 193 192 194 198 199 202 202 202 202 203 199 198 200 201 197 199 197 196 198 200 201 206 203 197 186 187 188 192 197 202 215 217 213 217 201 195 192 188 196 197 197 202 189 192 195 203 208 220 217 216 214 215 236 207 213 212 213 219 233 224 206 201 222 230 224 207
203 206 205 203 197 193 198 197 196 196 196 198 197 192 196 194 190 193 195 193 193 195 198 197 199 199 202 202 202 201 199 200 203 204 207 204 201 200 203 206 205 204 199 194 192 190 194 197 203 209 210 218 216 198 195 192 185 195 199 195 201 198 192 199 203 205 220 223 217 208 217 226 217 192 206 209 204 206 216 214 216 223 217 249 234
203 204 203 196 195 198 200 202 199 196 196 198 197 195 194 193 196 194 191 194 195 194 196 197 196 199 201 201 202 202 202 205 206 203 201 199 198 200 204 204 206 206 201 197 193 190 192 191 199 203 207 214 217 198 195 192 187 198 199 198 200 192 191 195 199 206 212 216 219 214 212 225 210 201 212 208 192 201 208 215 218 219 221 232 237
205 205 201 198 200 199 200 203 202 201 198 196 193 194 194 195 199 198 197 198 195 194 196 197 197 198 201 201 201 202 203 204 204 200 196 199 202 201 204 206 204 201 196 192 193 197 195 194 199 204 205 212 218 202 191 190 189 198 198 200 195 191 196 198 197 195 208 208 213 216 210 222 210 216 215 204 195 195 207 211 215 212 212 224 234
205 204 204 201 203 203 201 202 202 201 197 199 197 195 197 199 197 199 201 198 195 195 192 194 195 197 199 198 200 201 201 201 200 196 197 202 204 204 203 204 200 198 199 196 199 202 200 198 198 203 206 208 207 199 194 191 189 200 198 203 196 190 198 203 203 195 202 203 208 212 208 212 208 211 213 207 199 200 202 207 207 206 209 214 218
206 205 203 204 205 204 204 203 204 203 200 197 196 196 198 197 197 198 196 194 194 195 193 194 192 198 196 195 197 197 200 202 205 203 203 203 202 202 202 203 196 198 196 197 200 202 202 201 201 199 199 197 196 197 193 191 193 196 200 199 195 189 197 204 201 196 200 200 205 209 209 208 206 209 212 213 211 201 200 206 205 206 210 199 204
205 204 204 205 204 203 204 203 201 201 202 197 198 198 198 197 199 198 199 199 199 197 195 192 192 195 197 197 199 200 201 203 205 205 203 203 203 200 200 196 197 196 195 199 200 202 203 202 202 200 198 197 194 194 192 190 194 198 201 198 200 192 198 206 199 201 198 201 199 204 208 204 198 210 213 214 215 212 206 210 203 206 212 207 200
219 215 214 210 203 200 198 196 192 195 198 197 197 199 197 198 198 196 197 201 200 199 195 188 188 190 194 195 196 199 197 200 203 204 205 204 203 202 198 200 203 203 199 202 202 203 201 200 203 203 197 197 195 196 195 192 195 197 200 201 201 198 200 204 202 201 199 196 200 203 207 200 191 206 212 217 217 216 215 217 210 203 213 215 198
218 210 207 206 199 187 193 195 195 199 197 195 197 198 198 198 198 197 199 201 198 197 193 188 188 193 192 191 193 197 198 201 204 206 206 206 205 202 198 200 201 204 201 200 202 201 200 198 202 204 202 199 196 196 195 195 195 197 201 201 199 201 204 207 207 201 198 198 203 203 208 202 194 204 210 212 212 212 213 213 214 206 209 215 204
215 203 200 191 194 191 198 200 201 200 196 196 194 193 196 198 198 199 203 201 197 195 194 192 191 194 193 195 198 197 200 203 205 206 207 206 206 204 200 200 200 204 204 198 200 200 200 200 204 207 205 203 199 195 195 198 198 199 201 202 202 203 207 208 208 204 200 198 201 207 204 198 196 206 210 211 207 209 214 214 216 210 208 211 210
222 209 190 195 196 195 201 201 200 196 196 195 197 196 198 197 198 199 202 198 197 194 195 192 190 193 194 196 198 198 202 203 202 204 205 204 203 203 201 198 199 202 202 202 198 199 201 202 205 207 207 205 200 195 195 197 198 197 199 204 204 206 208 208 209 207 203 202 205 206 203 198 201 206 214 209 206 208 209 215 217 215 209 209 211
235 214 212 200 203 204 206 203 199 198 196 192 195 198 197 194 197 198 200 197 195 194 192 191 190 193 194 196 195 198 199 199 198 200 201 202 202 202 201 200 198 201 200 202 202 201 201 203 206 207 208 205 200 197 196 196 197 194 196 201 207 208 209 209 210 210 209 207 208 207 204 201 204 208 212 211 205 205 208 216 216 217 209 209 212
226 221 209 207 207 206 207 201 198 197 193 193 195 196 196 192 195 196 196 193 190 189 188 188 190 194 195 195 194 195 195 194 195 196 198 200 201 202 202 200 198 199 202 203 203 201 201 202 205 207 209 205 200 198 198 197 194 193 194 200 204 206 207 209 211 211 212 211 210 210 210 207 207 208 209 213 205 202 205 213 211 209 206 206 215
221 216 221 220 210 207 209 200 197 197 195 197 197 198 197 190 197 193 193 195 188 183 184 185 189 193 194 189 188 191 190 188 190 191 193 198 200 200 199 199 198 200 202 205 204 202 201 202 205 207 207 205 203 202 200 196 195 195 198 201 203 205 205 207 210 212 211 212 212 212 214 214 207 206 205 208 207 202 205 210 209 203 204 205 211
221 219 214 213 217 213 209 200 196 198 196 197 195 199 199 197 197 190 194 198 186 185 182 192 195 197 191 187 186 189 189 187 188 192 194 195 198 198 198 198 197 198 200 201 203 203 203 201 202 206 206 205 205 205 199 193 193 194 196 200 200 203 205 207 207 210 212 210 212 214 215 212 206 204 206 208 213 212 213 219 210 196 201 205 208
244 236 220 212 215 217 209 201 199 200 199 198 198 197 197 202 199 197 195 193 187 186 187 195 204 199 185 185 189 193 187 188 193 194 194 194 197 198 200 200 200 199 201 199 201 204 204 204 204 205 206 207 206 206 192 191 196 197 195 196 196 199 202 205 208 207 209 207 211 215 220 208 207 205 208 209 214 215 215 221 226 213 205 205 211
255 245 228 218 220 216 210 208 205 203 200 198 199 195 195 201 199 199 198 193 193 191 194 201 204 190 184 187 192 188 189 193 191 194 193 194 197 200 202 200 198 198 198 201 202 204 206 208 209 211 211 209 210 201 187 191 195 198 200 200 199 201 201 204 208 210 209 208 209 210 211 209 203 208 210 211 214 217 216 218 220 222 216 217 222
247 257 243 231 222 217 212 215 209 202 200 202 197 194 196 199 197 196 190 188 192 193 196 199 186 181 188 188 185 186 191 192 194 193 192 192 195 199 201 200 202 201 199 201 204 205 209 209 210 211 213 212 216 192 187 189 195 198 200 203 208 205 203 205 206 207 207 206 207 206 206 204 208 194 202 213 214 213 211 214 219 221 222 219 223
249 238 235 234 231 239 229 219 216 210 205 203 197 198 199 198 197 181 184 194 194 197 196 195 186 187 188 187 186 189 193 194 190 188 189 192 196 203 204 204 203 201 202 204 205 207 209 208 209 210 212 215 219 189 185 188 194 196 196 199 213 207 208 207 205 203 204 206 203 202 202 204 205 194 203 208 211 213 207 206 214 220 225 224 223
247 242 242 237 235 237 235 224 222 219 211 202 201 206 201 196 186 180 190 192 197 199 199 195 188 191 187 187 189 191 193 189 186 186 189 194 198 202 202 202 202 203 203 202 203 207 210 211 210 210 213 215 220 188 184 189 193 193 193 196 210 213 210 209 205 205 205 205 204 204 206 207 198 192 196 198 203 205 205 208 209 213 220 228 225
249 247 248 238 240 230 231 225 221 210 204 200 203 201 200 200 195 192 192 195 196 199 201 187 187 189 191 191 191 192 190 188 187 188 192 197 199 199 200 197 201 206 210 207 208 211 211 210 209 210 214 218 219 187 184 188 191 191 187 194 207 213 213 209 208 209 208 208 207 204 205 206 199 196 189 186 196 197 201 208 214 220 220 224 228
284 281 272 257 248 248 249 233 213 207 202 203 201 192 194 193 190 194 188 193 194 196 196 190 195 192 192 189 191 191 190 189 189 191 197 199 199 200 199 194 200 204 206 211 215 211 212 213 211 212 214 217 221 185 184 185 187 185 180 199 204 211 218 214 212 211 209 209 205 203 205 204 200 202 177 179 190 191 205 207 214 217 222 230 234
285 289 277 265 253 248 239 232 217 206 206 196 191 186 180 182 188 189 184 193 192 199 197 194 196 190 182 181 183 185 186 187 189 196 198 200 201 201 200 195 202 205 209 212 215 218 212 211 211 212 211 213 219 183 181 182 185 180 183 194 199 210 222 222 219 213 211 207 207 199 201 204 199 198 166 179 183 186 202 205 212 214 219 226 225
283 292 296 298 291 255 238 214 216 206 196 183 185 185 184 186 187 191 192 193 196 202 195 197 197 187 177 184 187 186 185 187 194 197 196 198 198 197 196 196 205 208 212 213 215 223 217 212 214 214 205 210 219 194 177 180 182 179 186 195 197 208 221 223 223 219 215 214 208 198 198 202 202 181 165 178 180 184 201 205 205 209 215 221 220
266 311 325 2 29 109 153 197 207 213 187 187 181 180 185 187 188 190 191 195 200 201 192 186 182 177 180 190 194 191 195 197 197 195 197 200 197 196 197 198 204 210 215 217 221 222 227 225 222 219 212 211 216 206 176 179 179 178 185 191 199 204 219 221 221 220 218 222 221 213 193 199 196 169 169 177 181 186 198 201 202 210 212 214 210
39 72 65 81 67 64 60 43 21 355 214 191 186 181 184 187 179 186 202 208 206 175 159 172 172 186 194 195 193 193 193 195 192 194 198 201 199 201 200 201 206 209 213 218 216 222 222 224 224 220 227 222 214 209 176 179 178 179 185 188 204 203 212 213 217 216 215 217 212 214 213 185 185 174 173 180 180 190 196 201 192 198 205 182 157
58 44 74 87 79 66 61 46 23 18 19 188 176 177 176 171 182 199 206 193 145 160 176 179 185 193 195 193 196 199 195 196 194 189 190 200 205 203 203 204 205 205 209 214 218 220 220 223 218 218 223 226 216 206 177 181 178 181 183 192 200 204 203 206 208 217 208 216 213 205 211 178 179 175 180 179 182 185 193 195 191 159 116 131 158
79 79 72 90 86 76 62 52 35 27 17 26 183 171 161 156 181 183 178 159 153 168 171 179 184 190 193 193 194 190 187 195 195 191 195 202 198 201 203 204 202 205 208 213 216 217 221 223 217 211 215 216 213 199 174 175 181 182 186 192 201 205 189 196 199 209 215 207 206 202 196 164 175 175 178 180 179 183 182 184 141 138 146 142 149
65 73 92 103 98 91 78 59 51 44 34 22 86 131 123 135 86 16 200 170 167 169 172 179 184 190 193 197 197 193 193 197 194 188 197 197 199 200 205 209 213 215 219 222 225 225 227 231 231 225 224 215 207 193 178 176 181 185 187 193 200 202 187 198 205 203 183 189 196 182 171 158 171 174 178 177 177 171 178 155 146 146 147 158 170
85 79 68 75 83 85 78 65 53 50 48 47 43 90 91 79 35 353 14 183 179 173 175 187 190 191 190 193 191 192 194 195 194 192 198 201 203 199 204 212 213 217 221 225 227 226 225 231 232 230 230 226 225 213 176 180 178 185 191 194 197 199 195 191 196 198 174 177 166 153 144 160 170 175 170 159 163 175 155 147 148 148 152 170 170
82 68 65 75 77 75 73 70 60 54 58 55 55 61 73 63 43 25 337 17 181 180 180 188 190 189 191 193 194 196 196 195 195 198 201 202 203 202 209 207 211 219 222 224 229 227 226 228 231 233 232 228 214 223 171 179 189 189 194 195 195 197 194 190 190 183 170 136 134 145 157 162 159 150 140 151 159 161 154 149 149 155 168 177 177
62 56 68 78 77 74 70 66 58 42 48 56 63 61 59 56 44 32 39 14 167 175 184 184 188 191 189 193 195 199 197 198 199 205 207 207 208 212 212 212 214 223 225 226 229 230 231 229 227 234 230 208 202 201 190 182 187 190 200 199 196 202 195 183 182 133 129 145 155 154 155 157 154 155 144 130 121 128 134 144 154 169 180 179 173
50 54 55 67 73 79 79 75 67 53 48 46 50 51 44 39 38 38 40 60 79 127 175 170 184 190 195 201 204 202 200 206 204 206 211 212 212 216 219 217 215 218 222 223 224 224 223 224 231 231 225 222 207 206 194 183 187 182 181 187 195 192 183 181 174 161 158 142 137 135 129 127 131 134 132 135 142 155 159 163 169 175 177 175 164
55 53 53 59 65 69 72 75 72 68 65 60 52 44 37 31 32 33 35 60 73 82 93 102 117 158 181 188 211 205 210 214 212 208 211 216 220 219 220 219 221 223 241 243 239 235 232 234 235 230 213 205 213 207 209 203 196 189 183 180 186 193 185 183 169 149 139 135 133 139 142 141 147 143 143 146 153 159 162 164 166 173 176 163 164
54 60 65 71 73 76 76 74 72 70 68 65 60 54 47 38 19 31 47 62 67 69 70 68 61 64 63 107 172 202 202 210 216 216 211 184 62 68 57 20 18 18 52 107 122 267 276 292 269 247 232 223 217 217 215 183 181 184 185 178 180 179 182 167 146 145 142 142 149 149 152 150 147 144 152 157 161 161 158 161 165 165 171 179 178
42 54 60 67 70 74 77 76 75 74 72 69 64 57 51 47 45 43 42 53 70 79 75 70 65 60 54 64 75 70 71 68 55 66 69 100 140 80 102 116 133 168 322 305 264 247 248 249 237 261 249 235 236 238 191 177 179 180 184 187 183 171 160 146 143 136 141 147 157 160 159 153 148 151 154 160 163 162 164 163 164 168 178 176 179